Location: Unspecified
(0.0000°N, 0.0000°E)
Time: 00:22:24
(UTC+00:00)

deb Explorer IX - Visible Passes

Search period start: 27 May 2016 00:00
Search period end: 06 June 2016 00:00
Orbit: 549 x 1133 km, 38.8° (Epoch: 25 May)

Date Brightness Start Highest point End Pass type
(mag) Time Alt. Az. Time Alt. Az. Time Alt. Az.
27 May ? 19:15:44 10° NW 19:22:52 79° SW 19:26:53 30° SE visible
27 May ? 21:06:21 10° WSW 21:08:37 15° WSW 21:08:37 15° WSW visible
28 May ? 18:58:43 10° NW 19:05:42 72° SW 19:11:08 20° SE visible
28 May ? 20:49:42 10° WSW 20:52:52 15° SW 20:52:52 15° SW visible
29 May ? 18:41:42 10° WNW 18:48:33 65° SW 18:55:23 13° SE visible
29 May ? 20:33:09 10° WSW 20:36:51 14° SW 20:37:07 14° SW visible
30 May ? 18:24:43 10° WNW 18:31:24 59° SW 18:38:43 10° SE visible
30 May ? 20:16:44 10° WSW 20:19:47 13° SW 20:21:20 12° SSW visible
31 May ? 05:26:01 10° SW 05:30:56 61° SE 05:35:13 10° ENE visible
31 May ? 20:00:33 10° SW 20:02:43 11° SW 20:04:54 10° SSW visible
01 Jun ? 05:09:17 12° SW 05:13:58 71° SE 05:18:21 10° NE visible
02 Jun ? 04:53:29 21° SW 04:56:58 83° SE 05:01:28 10° NE visible
03 Jun ? 04:37:39 34° SW 04:39:56 86° NW 04:44:33 10° NE visible
04 Jun ? 04:21:48 55° WSW 04:22:54 76° NW 04:27:36 10° NE visible
05 Jun ? 04:05:53 67° NW 04:05:53 67° NW 04:10:38 10° NE visible
